軌道要素
The following orbital elements are taken from MPC 68902:
Epoch 2010 Mar. 25.0 TT = JDT 2455280.5
T 2010 Apr. 3.6822 TT MPC
q 1.621820 (2000.0) P Q
n 0.0661329 Peri. 41.2826 -0.2570880 -0.9374625
a 6.056073 Node 64.8290 +0.8045914 -0.3421457
e 0.732199 Incl. 15.0280 +0.5352929 +0.0640344
P 14.9
From 202 observations 2009 Oct. 14-2010 Feb. 25.
|